Location: Copper Breaks State Park
(34.1132°N, 99.7492°W)
Time: 01:16:01
(UTC-05:00)

SL-16 R/B - Visible Passes

Search period start: 21 August 2014 00:00
Search period end: 31 August 2014 00:00
Orbit: 985 x 1008 km, 99.2° (Epoch: 20 August)

Date Brightness Start Highest point End Pass type
(mag) Time Alt. Az. Time Alt. Az. Time Alt. Az.
21 Aug 2.7 05:33:41 10° SSE 05:39:52 77° ENE 05:46:04 10° N visible
22 Aug 5.0 04:23:30 10° ESE 04:27:40 19° ENE 04:31:50 10° NNE visible
22 Aug 2.6 06:04:39 10° S 06:10:45 59° WSW 06:16:52 10° NNW visible
23 Aug 4.1 04:52:45 10° SE 04:58:14 34° ENE 05:03:43 10° N visible
23 Aug 3.2 06:36:21 10° SSW 06:41:47 32° W 06:47:13 10° NW visible
24 Aug 3.0 05:22:50 10° SSE 05:28:56 63° ENE 05:35:02 10° N visible
25 Aug 5.2 04:13:26 10° E 04:16:52 16° ENE 04:20:17 10° NNE visible
25 Aug 2.5 05:53:36 10° S 05:59:47 73° WSW 06:05:58 10° NNW visible
26 Aug 4.4 04:42:14 10° ESE 04:47:22 28° ENE 04:52:29 10° N visible
26 Aug 3.0 06:25:02 10° SSW 06:30:45 39° W 06:36:30 10° NNW visible
27 Aug 3.4 05:12:05 10° SE 05:18:01 51° ENE 05:23:58 10° N visible
28 Aug 5.4 04:03:42 10° E 04:06:04 12° ENE 04:08:25 10° NE visible
28 Aug 2.5 05:42:37 10° SSE 05:48:49 89° WSW 05:55:02 10° NNW visible
29 Aug 4.7 04:31:50 10° ESE 04:36:31 23° ENE 04:41:11 10° NNE visible
29 Aug 2.7 06:13:49 10° S 06:19:45 48° W 06:25:42 10° NNW visible
30 Aug 3.7 05:01:24 10° SE 05:07:07 41° ENE 05:12:50 10° N visible
30 Aug 3.4 06:45:47 10° SSW 06:50:49 26° W 06:55:51 10° NW visible
